| time (UTC) | temp F | wind direction | speed knots | gust knots | rain 1hr in | rain 24hr in | rain mn in | humidity % | barometer mb |
| 20260506163228 | 46 | 142 | 0.9 | 11.3 | 0.91 | 3.03 | 0.61 | 90 | 1010.6 |
| 20260506161712 | 49 | 160 | 4.3 | 13.0 | 0.51 | 2.60 | 0.50 | 91 | 1009.4 |
| 20260506160213 | 50 | 15 | 4.3 | 9.6 | 0.12 | 2.17 | 0.38 | 91 | 1008.8 |
| 20260506154712 | 50 | 81 | 3.5 | 10.4 | 0.12 | 2.17 | 0.38 | 90 | 1008.7 |
| 20260506153216 | 50 | 136 | 3.5 | 7.0 | 0.12 | 2.17 | 0.38 | 89 | 1008.8 |
| 20260506151717 | 52 | 202 | 1.7 | 7.0 | 0.08 | 2.13 | 0.37 | 82 | 1009.0 |
| 20260506150222 | 54 | 18 | 3.5 | 7.0 | 0.00 | 2.17 | 0.35 | 83 | 1008.9 |
| 20260506144719 | 54 | 350 | 0.9 | 6.1 | 0.00 | 2.17 | 0.35 | 81 | 1009.2 |
| 20260506143219 | 54 | 340 | 1.7 | 6.1 | 0.00 | 2.17 | 0.35 | 83 | 1009.0 |
| 20260506141722 | 54 | 348 | 0.9 | 5.2 | 0.00 | 2.17 | 0.35 | 82 | 1009.4 |
| 20260506140222 | 55 | 78 | 2.6 | 5.2 | 0.00 | 2.17 | 0.35 | 84 | 1009.8 |
| 20260506134724 | 53 | 346 | 0.9 | 4.3 | 0.00 | 2.17 | 0.35 | 84 | 1010.1 |
| 20260506133228 | 54 | 71 | 3.5 | 6.1 | 0.00 | 2.17 | 0.35 | 82 | 1010.3 |
| 20260506131729 | 55 | 207 | 0.9 | 7.0 | 0.00 | 2.17 | 0.35 | 85 | 1010.3 |
| 20260506130233 | 53 | 279 | 4.3 | 10.4 | 0.04 | 2.17 | 0.35 | 88 | 1010.3 |
| 20260506124713 | 52 | 183 | 0.9 | 4.3 | 0.04 | 2.17 | 0.35 | 88 | 1010.2 |
| 20260506123213 | 51 | 331 | 0.0 | 5.2 | 0.04 | 2.17 | 0.35 | 90 | 1010.1 |
| 20260506121718 | 52 | 346 | 0.0 | 7.0 | 0.04 | 2.17 | 0.35 | 86 | 1010.1 |
| 20260506120225 | 53 | 302 | 0.0 | 3.5 | 0.00 | 2.20 | 0.34 | 88 | 1010.0 |
| 20260506114724 | 52 | 286 | 1.7 | 2.6 | 0.00 | 2.20 | 0.34 | 88 | 1010.0 |
| 20260506113229 | 51 | 74 | 0.9 | 2.6 | 0.00 | 2.20 | 0.34 | 89 | 1010.1 |
| 20260506111710 | 51 | 355 | 2.6 | 5.2 | 0.00 | 2.20 | 0.34 | 88 | 1010.3 |
| 20260506110212 | 50 | 74 | 2.6 | 7.0 | 0.00 | 2.24 | 0.34 | 91 | 1010.7 |
| 20260506104712 | 49 | 342 | 1.7 | 6.1 | 0.00 | 2.24 | 0.34 | 92 | 1010.8 |
| 20260506103211 | 48 | 44 | 2.6 | 5.2 | 0.04 | 2.24 | 0.34 | 93 | 1010.6 |
| 20260506101715 | 48 | 54 | 3.5 | 7.8 | 0.12 | 2.24 | 0.34 | 91 | 1010.9 |
| 20260506100214 | 47 | 68 | 3.5 | 9.6 | 0.20 | 2.36 | 0.34 | 92 | 1010.9 |
| 20260506094720 | 47 | 83 | 4.3 | 10.4 | 0.31 | 2.36 | 0.34 | 93 | 1010.7 |
| 20260506093220 | 46 | 214 | 1.7 | 4.3 | 0.28 | 2.32 | 0.33 | 94 | 1010.8 |
| 20260506091722 | 47 | 64 | 0.9 | 7.0 | 0.20 | 2.24 | 0.31 | 92 | 1010.7 |
| 20260506090226 | 47 | 76 | 4.3 | 8.7 | 0.12 | 2.68 | 0.29 | 88 | 1010.1 |
| 20260506084727 | 48 | 91 | 3.5 | 12.2 | 0.00 | 2.56 | 0.26 | 85 | 1010.1 |
| 20260506083211 | 49 | 118 | 2.6 | 10.4 | 0.00 | 2.56 | 0.26 | 86 | 1010.0 |
| 20260506081712 | 49 | 136 | 2.6 | 7.8 | 0.00 | 2.56 | 0.26 | 85 | 1010.0 |
| 20260506080212 | 49 | 69 | 5.2 | 9.6 | 0.00 | 2.80 | 0.26 | 84 | 1009.8 |
| 20260506073213 | 49 | 272 | 1.7 | 7.8 | 0.00 | 2.80 | 0.26 | 86 | 1010.1 |
| 20260506071714 | 48 | 92 | 3.5 | 12.2 | 0.00 | 2.80 | 0.26 | 88 | 1010.2 |
| 20260506070215 | 47 | 36 | 1.7 | 7.0 | 0.00 | 2.83 | 0.26 | 89 | 1010.0 |
| 20260506061717 | 46 | 5 | 3.5 | 9.6 | 0.24 | 2.83 | 0.26 | 95 | 1010.7 |
| 20260506060215 | 46 | 47 | 7.8 | 13.0 | 0.39 | 2.83 | 0.26 | 97 | 1010.5 |
| 20260506050221 | 46 | 94 | 0.9 | 2.6 | 0.12 | 2.44 | 0.16 | 97 | 1011.1 |
| 20260506044722 | 46 | 88 | 0.9 | 2.6 | 0.08 | 2.40 | 0.15 | 97 | 1011.3 |
| 20260506043227 | 46 | 118 | 0.9 | 2.6 | 0.04 | 2.36 | 0.14 | 97 | 1011.2 |
| 20260506041726 | 46 | 77 | 1.7 | 3.5 | 0.04 | 2.36 | 0.14 | 97 | 1011.1 |
| 20260506040210 | 47 | 69 | 1.7 | 3.5 | 0.00 | 2.32 | 0.13 | 98 | 1011.0 |
| 20260506034712 | 47 | 76 | 1.7 | 4.3 | 0.00 | 2.32 | 0.13 | 98 | 1011.1 |
| 20260506033211 | 47 | 51 | 1.7 | 4.3 | 0.00 | 2.32 | 0.13 | 98 | 1011.2 |
| 20260506031715 | 47 | 84 | 0.9 | 2.6 | 0.00 | 2.32 | 0.13 | 98 | 1011.4 |
| 20260506030218 | 47 | 66 | 1.7 | 3.5 | 0.00 | 2.32 | 0.13 | 98 | 1011.4 |
| 20260506024715 | 47 | 66 | 0.0 | 0.0 | 0.00 | 2.32 | 0.13 | 98 | 1011.9 |
| 20260506023220 | 47 | 55 | 0.0 | 2.6 | 0.00 | 2.32 | 0.13 | 98 | 1012.1 |
| 20260506021722 | 47 | 151 | 0.0 | 1.7 | 0.12 | 2.32 | 0.13 | 98 | 1012.3 |
| 20260506020227 | 47 | 24 | 0.9 | 1.7 | 0.16 | 2.32 | 0.13 | 98 | 1012.5 |
| 20260506014728 | 47 | 24 | 0.0 | 0.0 | 0.20 | 2.32 | 0.13 | 98 | 1012.4 |
| 20260506013230 | 47 | 342 | 0.0 | 1.7 | 0.28 | 2.32 | 0.13 | 98 | 1012.3 |
| 20260506011714 | 47 | 317 | 0.0 | 0.0 | 0.20 | 2.20 | 0.10 | 98 | 1012.5 |
| 20260506010214 | 47 | 317 | 0.0 | 0.0 | 0.20 | 2.17 | 0.09 | 98 | 1012.6 |
| 20260506004723 | 47 | 317 | 0.0 | 0.0 | 0.16 | 2.13 | 0.08 | 98 | 1012.7 |
| 20260506003214 | 47 | 209 | 0.0 | 0.0 | 0.12 | 2.05 | 0.06 | 98 | 1012.8 |
| 20260506001713 | 47 | 186 | 0.0 | 0.0 | 0.20 | 2.01 | 0.05 | 98 | 1012.9 |
| 20260505234723 | 47 | 135 | 0.0 | 0.0 | 0.16 | 1.97 | 0.04 | 98 | 1013.1 |
| 20260505233223 | 47 | 128 | 0.0 | 0.0 | 0.12 | 1.93 | 0.03 | 98 | 1013.1 |
| 20260505231724 | 47 | 106 | 0.0 | 0.0 | 0.00 | 1.81 | 0.00 | 98 | 1013.2 |
| 20260505230229 | 47 | 106 | 0.0 | 0.0 | 0.00 | 1.81 | 0.00 | 98 | 1013.2 |
| 20260505224730 | 47 | 91 | 0.9 | 1.7 | 0.04 | 1.81 | 0.00 | 98 | 1013.2 |
| 20260505223216 | 47 | 78 | 0.9 | 1.7 | 0.04 | 1.81 | 0.00 | 98 | 1013.3 |
| 20260505221716 | 47 | 59 | 0.0 | 1.7 | 0.12 | 1.81 | 0.00 | 98 | 1013.4 |
| 20260505220216 | 47 | 269 | 0.0 | 1.7 | 0.20 | 1.77 | 0.45 | 98 | 1013.7 |
| 20260505214719 | 47 | 137 | 0.0 | 0.0 | 0.31 | 1.77 | 0.45 | 98 | 1013.7 |
| 20260505213219 | 47 | 137 | 0.0 | 1.7 | 0.43 | 1.77 | 0.45 | 97 | 1013.8 |
| 20260505211722 | 47 | 101 | 0.9 | 2.6 | 0.39 | 1.69 | 0.43 | 97 | 1013.9 |
| 20260505210223 | 47 | 15 | 0.0 | 0.0 | 0.24 | 1.54 | 0.39 | 98 | 1014.0 |
| 20260505204718 | 47 | 344 | 0.0 | 0.0 | 0.16 | 1.46 | 0.37 | 98 | 1014.2 |
| 20260505203222 | 47 | 177 | 0.0 | 0.0 | 0.08 | 1.34 | 0.34 | 98 | 1014.3 |
| 20260505201721 | 47 | 150 | 0.0 | 0.0 | 0.04 | 1.30 | 0.33 | 97 | 1014.1 |
| 20260505200223 | 47 | 196 | 0.0 | 0.0 | 0.04 | 1.30 | 0.33 | 97 | 1014.2 |
| 20260505194721 | 47 | 92 | 0.0 | 2.6 | 0.04 | 1.30 | 0.33 | 97 | 1014.1 |
| 20260505193216 | 47 | 127 | 0.0 | 0.9 | 0.00 | 1.26 | 0.32 | 97 | 1014.1 |
| 20260505191719 | 47 | 128 | 0.9 | 1.7 | 0.08 | 1.26 | 0.32 | 97 | 1014.0 |
| 20260505190218 | 47 | 109 | 0.9 | 2.6 | 0.08 | 1.26 | 0.32 | 97 | 1014.0 |
| 20260505184716 | 48 | 244 | 0.0 | 0.0 | 0.08 | 1.26 | 0.32 | 97 | 1013.9 |
| 20260505183221 | 48 | 244 | 0.0 | 0.0 | 0.08 | 1.26 | 0.32 | 97 | 1014.0 |
| 20260505181724 | 48 | 262 | 0.0 | 0.9 | 0.00 | 1.18 | 0.30 | 97 | 1014.0 |
| 20260505180229 | 48 | 211 | 0.0 | 0.0 | 0.00 | 1.18 | 0.30 | 97 | 1013.9 |
| 20260505174711 | 48 | 211 | 0.0 | 0.0 | 0.00 | 1.18 | 0.30 | 97 | 1013.7 |
| 20260505173229 | 48 | 211 | 0.0 | 1.7 | 0.00 | 1.18 | 0.30 | 97 | 1013.7 |
| 20260505171729 | 48 | 231 | 0.9 | 1.7 | 0.00 | 1.18 | 0.30 | 97 | 1013.7 |
| 20260505170211 | 48 | 234 | 0.0 | 2.6 | 0.00 | 1.18 | 0.30 | 96 | 1013.7 |
| 20260505164714 | 48 | 174 | 0.0 | 0.0 | 0.00 | 1.18 | 0.30 | 96 | 1013.7 |